ONEWEB-0195, 48240

Orbit data source: Space-Track

ONEWEB-0195, 48240 is a payload satellite owned by One Web (NAA) (UK) in LEO that was launched on Sun, 25 Apr 2021 UTC via a SOYUZ-2-1B launch vehicle from the Vostochny Cosmodrome (VOSTO). Payload-class satellites include a variety of spacecraft equipped with specific instruments for various scientific and technological missions. These include communications satellites like Starlink; space stations such as the ISS; scientific satellites like the Hubble; Earth observation satellites from companies like Planet Labs, Umbra, and HawkEye 360; GPS; miniature CubeSats for education and research; and military/defense satellites.

Loading next visibility...
Identifier
48240, 2021-031AG
Orbit
LEO
Country
Flag of UKUK
Related business
Manufacturer
One Web
Mission
Operational Commercial Communications
Bus & Motor
ARROW, Unknown motor
Mass
148 kg wet, ~140 kg dry
Launch date (UTC)
2021-04-25 (5 years ago)
Launch vehicle
SOYUZ-2-1B
Launch site
Vostochny Cosmodrome (VOSTO)
Object type
Payload
Rocket body
Debris
Shape & HBR
Trap Box + 2 Pan, 6.7 m
Radar Cross Section
3.464 m², Large (>1 m²)

Expand to show TLE details & history
Last TLE update: 4 hours ago

TLE from 4 hours ago
0 ONEWEB-0195
1 48240U 21031AG  26095.28906193 -.00000146  00000-0 -42913-3 0  9990
2 48240  87.8947 304.2427 0001886  75.2929 284.8409 13.14500690238571
Epoch: 2026-04-05T06:56Z
TLE epoch observation values (Epoch: 2026-04-05T06:56:14.950Z)
Latitude
-0.0001°
Longitude
6.58378°
Altitude
1,208.326 km
Speed
7.25 km/s
True Right ascension
20h 16m 58s
True Declination
0° 00' 00"
Sunlit
Object was in daylight at epoch
Visualization orbit readout
Latitude
Unknown
Longitude
Unknown
Altitude
Unknown
Speed
Unknown
Apparent Right ascension
Unknown
Apparent Declination
Unknown
Sunlit
N/A
Visualization observer readout
Local Sidereal Time
16:36:21
Azimuth
Unknown
Elevation
Unknown
Doppler factor
Unknown
Orbital elements
Apogee altitude
1,204.342 km
Perigee altitude
1,201.482 km
Semi-major axis
7,581.049 km
Eccentricity
0.00019
Inclination
87.8947°
RAAN
304.2427°
Arg. of periapsis
75.2929°
True anomaly
284.82001°
Mean anomaly
284.8409°
Eccentric anomaly
284.83045°
Mean motion
3.28813 °/min
Orbital period
109.48 mins
BSTAR
-0.00042913
Loading maneuver chart data...
Computing Atmospheric mass density...
Loading historical data...
Loading historical data...
Loading historical data...
Loading historical data...
Loading historical data...
Loading historical data...
Loading historical data...

Documentation

Showing up to 5 results
|